| time (UTC) | temp C | wind direction | speed KPH | gust KPH | rain 1hr cm | rain 24hr cm | rain mn cm | humidity % | barometer mb |
| 20260506092254 | 23 | 187 | 6.4 | 22.5 | 0.00 | 0.00 | 0.00 | 90 | 1005.3 |
| 20260506091240 | 23 | 204 | 4.8 | 19.3 | 0.00 | 0.00 | 0.00 | 90 | 1005.2 |
| 20260506090207 | 23 | 219 | 4.8 | 14.5 | 0.00 | 0.00 | 0.00 | 90 | 1005.1 |
| 20260506084057 | 23 | 170 | 6.4 | 19.3 | 0.00 | 0.00 | 0.00 | 90 | 1005.1 |
| 20260506081934 | 23 | 172 | 4.8 | 12.9 | 0.00 | 0.00 | 0.00 | 90 | 1005.2 |
| 20260506080953 | 23 | 188 | 8.0 | 19.3 | 0.00 | 0.00 | 0.00 | 90 | 1005.2 |
| 20260506072857 | 23 | 188 | 8.0 | 20.9 | 0.00 | 0.00 | 0.00 | 89 | 1005.6 |
| 20260506071858 | 24 | 182 | 8.0 | 20.9 | 0.00 | 0.00 | 0.00 | 89 | 1005.6 |
| 20260506070907 | 24 | 161 | 4.8 | 20.9 | 0.00 | 0.00 | 0.00 | 89 | 1005.7 |
| 20260506060736 | 24 | 198 | 9.7 | 22.5 | 0.00 | 0.00 | 0.00 | 88 | 1005.7 |
| 20260506050354 | 24 | 175 | 9.7 | 25.7 | 0.00 | 0.00 | 0.00 | 87 | 1005.8 |
| 20260506044348 | 24 | 171 | 11.3 | 27.4 | 0.00 | 0.00 | 0.00 | 87 | 1005.8 |
| 20260506043343 | 24 | 173 | 8.0 | 24.1 | 0.00 | 0.00 | 0.00 | 88 | 1005.8 |
| 20260506041214 | 25 | 188 | 6.4 | 17.7 | 0.00 | 0.00 | 0.00 | 88 | 1005.6 |
| 20260506040158 | 25 | 178 | 6.4 | 16.1 | 0.00 | 0.00 | 0.00 | 87 | 1005.6 |
| 20260506035201 | 25 | 165 | 6.4 | 16.1 | 0.00 | 0.00 | 0.00 | 87 | 1005.3 |
| 20260506034133 | 25 | 180 | 6.4 | 16.1 | 0.00 | 0.00 | 0.00 | 87 | 1005.3 |
| 20260506033150 | 25 | 154 | 6.4 | 16.1 | 0.00 | 0.00 | 0.00 | 87 | 1005.2 |
| 20260506031110 | 25 | 175 | 6.4 | 19.3 | 0.00 | 0.00 | 0.00 | 85 | 1005.0 |
| 20260506030111 | 25 | 148 | 6.4 | 19.3 | 0.00 | 0.00 | 0.00 | 85 | 1004.8 |
| 20260506025039 | 25 | 182 | 6.4 | 14.5 | 0.00 | 0.00 | 0.00 | 84 | 1004.8 |
| 20260506024027 | 25 | 217 | 6.4 | 17.7 | 0.00 | 0.00 | 0.00 | 84 | 1004.6 |
| 20260506022956 | 25 | 175 | 6.4 | 17.7 | 0.00 | 0.00 | 0.00 | 83 | 1004.4 |
| 20260506021954 | 25 | 159 | 4.8 | 12.9 | 0.00 | 0.00 | 0.00 | 82 | 1004.2 |
| 20260506020928 | 25 | 161 | 4.8 | 12.9 | 0.00 | 0.00 | 0.00 | 82 | 1004.0 |
| 20260506015938 | 26 | 128 | 4.8 | 14.5 | 0.00 | 0.00 | 0.00 | 81 | 1003.8 |
| 20260506014953 | 26 | 126 | 4.8 | 14.5 | 0.00 | 0.00 | 0.00 | 81 | 1003.8 |
| 20260506014006 | 26 | 171 | 4.8 | 12.9 | 0.00 | 0.00 | 0.00 | 80 | 1003.7 |
| 20260506012957 | 26 | 149 | 3.2 | 11.3 | 0.00 | 0.00 | 0.00 | 80 | 1003.7 |
| 20260506011937 | 26 | 143 | 3.2 | 8.0 | 0.00 | 0.00 | 0.00 | 79 | 1003.6 |
| 20260506010953 | 27 | 143 | 3.2 | 8.0 | 0.00 | 0.00 | 0.00 | 78 | 1003.8 |
| 20260506005952 | 27 | 161 | 3.2 | 6.4 | 0.00 | 0.00 | 0.00 | 76 | 1003.7 |
| 20260506004924 | 27 | 137 | 0.0 | 6.4 | 0.00 | 0.00 | 0.00 | 75 | 1003.8 |
| 20260506003927 | 27 | 147 | 1.6 | 11.3 | 0.00 | 0.00 | 0.00 | 75 | 1003.7 |
| 20260506002906 | 27 | 184 | 3.2 | 11.3 | 0.00 | 0.00 | 0.00 | 74 | 1003.6 |
| 20260506001837 | 27 | 150 | 3.2 | 12.9 | 0.00 | 0.00 | 0.00 | 73 | 1003.6 |
| 20260506000834 | 28 | 178 | 4.8 | 14.5 | 0.00 | 0.00 | 0.00 | 73 | 1003.6 |
| 20260505235816 | 28 | 189 | 4.8 | 16.1 | 0.00 | 0.00 | 0.00 | 73 | 1003.4 |
| 20260505234837 | 28 | 164 | 4.8 | 16.1 | 0.00 | 0.00 | 0.00 | 72 | 1003.3 |
| 20260505233816 | 28 | 181 | 4.8 | 20.9 | 0.00 | 0.00 | 0.00 | 71 | 1003.1 |
| 20260505232800 | 28 | 207 | 6.4 | 20.9 | 0.00 | 0.00 | 0.00 | 70 | 1003.2 |
| 20260505230608 | 28 | 213 | 3.2 | 16.1 | 0.00 | 0.00 | 0.00 | 71 | 1003.3 |
| 20260505225551 | 28 | 244 | 4.8 | 25.7 | 0.00 | 0.00 | 0.00 | 70 | 1003.2 |
| 20260505224515 | 28 | 155 | 6.4 | 25.7 | 0.00 | 0.00 | 0.00 | 70 | 1003.2 |
| 20260505223512 | 28 | 188 | 6.4 | 20.9 | 0.00 | 0.00 | 0.00 | 69 | 1003.1 |
| 20260505222527 | 28 | 127 | 4.8 | 20.9 | 0.00 | 0.00 | 0.00 | 68 | 1003.1 |
| 20260505221516 | 29 | 195 | 4.8 | 19.3 | 0.00 | 0.00 | 0.00 | 67 | 1003.1 |
| 20260505220529 | 29 | 209 | 8.0 | 20.9 | 0.00 | 0.00 | 0.00 | 68 | 1003.1 |
| 20260505213222 | 30 | 213 | 4.8 | 19.3 | 0.00 | 0.00 | 0.00 | 67 | 1003.6 |
| 20260505212216 | 29 | 190 | 6.4 | 19.3 | 0.00 | 0.00 | 0.00 | 68 | 1003.7 |
| 20260505211232 | 29 | 196 | 6.4 | 17.7 | 0.00 | 0.00 | 0.00 | 66 | 1003.7 |
| 20260505210229 | 30 | 167 | 6.4 | 17.7 | 0.00 | 0.00 | 0.00 | 67 | 1003.9 |
| 20260505204023 | 29 | 207 | 8.0 | 22.5 | 0.00 | 0.00 | 0.00 | 68 | 1004.2 |
| 20260505203002 | 29 | 173 | 6.4 | 20.9 | 0.00 | 0.00 | 0.00 | 69 | 1004.5 |
| 20260505202004 | 29 | 252 | 8.0 | 19.3 | 0.00 | 0.00 | 0.00 | 68 | 1004.7 |
| 20260505201009 | 28 | 219 | 4.8 | 25.7 | 0.00 | 0.00 | 0.00 | 70 | 1004.8 |
| 20260505195956 | 28 | 156 | 8.0 | 25.7 | 0.00 | 0.00 | 0.00 | 68 | 1004.8 |
| 20260505193743 | 28 | 205 | 6.4 | 19.3 | 0.00 | 0.00 | 0.00 | 69 | 1005.0 |
| 20260505192729 | 28 | 213 | 8.0 | 20.9 | 0.00 | 0.00 | 0.00 | 71 | 1005.1 |
| 20260505191743 | 29 | 228 | 6.4 | 20.9 | 0.00 | 0.00 | 0.00 | 68 | 1005.1 |
| 20260505190717 | 28 | 178 | 6.4 | 19.3 | 0.00 | 0.00 | 0.00 | 71 | 1005.2 |
| 20260505184521 | 27 | 198 | 4.8 | 12.9 | 0.00 | 0.00 | 0.00 | 71 | 1005.5 |
| 20260505183534 | 27 | 221 | 4.8 | 20.9 | 0.00 | 0.00 | 0.00 | 73 | 1005.6 |
| 20260505182507 | 27 | 159 | 6.4 | 25.7 | 0.00 | 0.00 | 0.00 | 74 | 1005.8 |
| 20260505181458 | 26 | 219 | 4.8 | 25.7 | 0.00 | 0.00 | 0.00 | 77 | 1005.9 |
| 20260505180512 | 25 | 206 | 4.8 | 16.1 | 0.00 | 0.00 | 0.00 | 79 | 1006.0 |
| 20260505175500 | 25 | 241 | 4.8 | 11.3 | 0.00 | 0.00 | 0.00 | 81 | 1006.2 |
| 20260505174514 | 25 | 225 | 4.8 | 14.5 | 0.00 | 0.00 | 0.00 | 81 | 1006.3 |
| 20260505173534 | 24 | 217 | 3.2 | 14.5 | 0.00 | 0.00 | 0.00 | 82 | 1006.4 |
| 20260505172531 | 24 | 231 | 3.2 | 12.9 | 0.00 | 0.00 | 0.00 | 84 | 1006.7 |
| 20260505171458 | 23 | 222 | 4.8 | 14.5 | 0.00 | 0.00 | 0.00 | 83 | 1006.6 |
| 20260505170516 | 23 | 193 | 3.2 | 16.1 | 0.00 | 0.00 | 0.00 | 84 | 1006.6 |
| 20260505165525 | 23 | 234 | 3.2 | 16.1 | 0.00 | 0.00 | 0.00 | 85 | 1006.6 |
| 20260505163406 | 23 | 255 | 3.2 | 12.9 | 0.00 | 0.00 | 0.00 | 86 | 1006.6 |
| 20260505162336 | 22 | 219 | 1.6 | 9.7 | 0.00 | 0.00 | 0.00 | 87 | 1006.5 |
| 20260505161343 | 22 | 221 | 3.2 | 11.3 | 0.00 | 0.00 | 0.00 | 88 | 1006.7 |
| 20260505153114 | 22 | 197 | 3.2 | 14.5 | 0.00 | 0.00 | 0.00 | 89 | 1006.6 |
| 20260505152126 | 22 | 234 | 4.8 | 14.5 | 0.00 | 0.00 | 0.00 | 89 | 1006.4 |
| 20260505125009 | 21 | 205 | 4.8 | 16.1 | 0.00 | 0.00 | 0.00 | 90 | 1005.4 |
| 20260505124021 | 21 | 202 | 4.8 | 16.1 | 0.00 | 0.00 | 0.00 | 90 | 1005.2 |
| 20260505123018 | 21 | 188 | 4.8 | 16.1 | 0.00 | 0.00 | 0.00 | 90 | 1005.2 |
| 20260505121957 | 21 | 180 | 4.8 | 16.1 | 0.00 | 0.00 | 0.00 | 90 | 1005.0 |
| 20260505121019 | 21 | 176 | 6.4 | 22.5 | 0.00 | 0.00 | 0.00 | 90 | 1005.0 |
| 20260505120008 | 21 | 207 | 4.8 | 22.5 | 0.00 | 0.00 | 0.00 | 90 | 1005.0 |
| 20260505115008 | 21 | 209 | 4.8 | 16.1 | 0.00 | 0.00 | 0.00 | 90 | 1004.9 |
| 20260505113939 | 21 | 244 | 3.2 | 12.9 | 0.00 | 0.00 | 0.00 | 90 | 1004.7 |
| 20260505113004 | 21 | 209 | 6.4 | 20.9 | 0.00 | 0.00 | 0.00 | 90 | 1004.7 |
| 20260505111953 | 21 | 187 | 6.4 | 22.5 | 0.00 | 0.00 | 0.00 | 90 | 1004.9 |
| 20260505110926 | 21 | 205 | 3.2 | 17.7 | 0.00 | 0.00 | 0.00 | 90 | 1004.9 |
| 20260505101957 | 21 | 180 | 6.4 | 22.5 | 0.00 | 0.00 | 0.00 | 90 | 1005.1 |
| 20260505100925 | 21 | 190 | 6.4 | 22.5 | 0.00 | 0.00 | 0.00 | 90 | 1005.0 |
| 20260505095906 | 21 | 217 | 6.4 | 22.5 | 0.00 | 0.00 | 0.00 | 89 | 1005.2 |
| 20260505094848 | 21 | 171 | 8.0 | 22.5 | 0.00 | 0.00 | 0.00 | 89 | 1005.1 |
| 20260505093829 | 21 | 207 | 6.4 | 22.5 | 0.00 | 0.00 | 0.00 | 89 | 1005.0 |